VE2YMM-13 Weather Reports


time (UTC)temp
C
wind
direction
speed
KPH
gust
KPH
rain 1hr
cm
rain 24hr
cm
rain mn
cm
humidity
%
barometer
mb
20260510120617 12 248 6.4 9.7 0.00 0.15 0.15 69 1008.6
20260510120117 12 270 20.9 27.4 0.00 0.15 0.15 68 1008.6
20260510115617 11 225 17.7 27.4 0.00 0.15 0.15 70 1008.6
20260510115117 11 225 14.5 20.9 0.00 0.15 0.15 72 1008.4
20260510114617 11 203 12.9 32.2 0.00 0.15 0.15 75 1008.4
20260510114119 11 225 9.7 14.5 0.00 0.15 0.15 77 1008.2
20260510113616 11 248 4.8 6.4 0.00 0.15 0.15 78 1008.3
20260510113217 11 225 4.8 11.3 0.00 0.15 0.15 79 1008.3
20260510112737 11 225 9.7 14.5 0.00 0.15 0.15 80 1008.2
20260510112117 11 203 11.3 20.9 0.00 0.15 0.15 81 1008.2
20260510111617 11 203 6.4 9.7 0.00 0.15 0.15 82 1008.1
20260510111116 11 248 17.7 27.4 0.00 0.15 0.15 82 1008.1
20260510110616 11 225 9.7 17.7 0.00 0.15 0.15 83 1008.0
20260510110117 11 248 11.3 17.7 0.00 0.15 0.15 84 1007.9
20260510105636 11 225 8.0 16.1 0.00 0.15 0.15 85 1007.7
20260510105116 11 270 8.0 14.5 0.00 0.15 0.15 86 1007.8
20260510104616 11 248 6.4 12.9 0.00 0.15 0.15 85 1007.6
20260510104117 11 248 4.8 8.0 0.00 0.15 0.15 86 1007.4
20260510103616 11 248 6.4 11.3 0.00 0.15 0.15 86 1007.1
20260510103116 11 225 4.8 9.7 0.00 0.15 0.15 87 1007.1
20260510102616 11 248 6.4 11.3 0.00 0.15 0.15 87 1007.3
20260510102117 11 180 4.8 12.9 0.00 0.15 0.15 87 1007.1
20260510101636 11 270 11.3 22.5 0.00 0.15 0.15 87 1007.2
20260510101116 11 248 11.3 17.7 0.00 0.15 0.15 88 1007.3
20260510100616 11 225 8.0 12.9 0.00 0.15 0.15 88 1007.3
20260510100117 11 225 9.7 12.9 0.00 0.15 0.15 88 1007.2
20260510095616 11 248 12.9 22.5 0.00 0.15 0.15 89 1007.1
20260510095116 11 248 9.7 20.9 0.00 0.15 0.15 89 1007.1
20260510094616 11 225 8.0 14.5 0.00 0.15 0.15 89 1007.0
20260510094116 11 225 8.0 11.3 0.00 0.15 0.15 89 1007.0
20260510093636 11 248 6.4 14.5 0.00 0.15 0.15 89 1006.9
20260510093116 11 225 1.6 8.0 0.00 0.15 0.15 89 1006.8
20260510092616 11 225 4.8 8.0 0.00 0.15 0.15 89 1006.8
20260510092136 11 248 6.4 8.0 0.00 0.15 0.15 89 1006.6
20260510091616 11 203 4.8 9.7 0.00 0.15 0.15 89 1006.6
20260510091137 11 225 6.4 9.7 0.00 0.15 0.15 89 1006.5
20260510090616 11 203 4.8 9.7 0.00 0.15 0.15 89 1006.4
20260510090116 11 203 6.4 12.9 0.00 0.15 0.15 89 1006.4
20260510085616 11 225 1.6 4.8 0.00 0.15 0.15 89 1006.4
20260510085116 11 203 4.8 6.4 0.00 0.15 0.15 89 1006.4
20260510084616 11 248 1.6 3.2 0.00 0.15 0.15 89 1006.2
20260510084116 11 203 1.6 6.4 0.00 0.15 0.15 89 1006.2
20260510083616 11 225 6.4 9.7 0.00 0.15 0.15 89 1006.2
20260510083116 11 203 3.2 8.0 0.00 0.15 0.15 89 1006.2
20260510082616 11 180 3.2 4.8 0.00 0.15 0.15 89 1006.2
20260510082116 11 203 4.8 9.7 0.00 0.15 0.15 89 1006.2
20260510081616 11 203 8.0 12.9 0.00 0.15 0.15 89 1006.2
20260510081116 11 180 4.8 9.7 0.00 0.15 0.15 89 1006.2
20260510080617 11 203 3.2 6.4 0.00 0.15 0.15 89 1006.2
20260510080116 11 203 3.2 8.0 0.00 0.15 0.15 89 1006.1
20260510075656 11 203 6.4 12.9 0.00 0.15 0.15 89 1006.1
20260510075116 11 203 6.4 11.3 0.00 0.15 0.15 90 1006.1
20260510074616 11 203 3.2 9.7 0.00 0.15 0.15 90 1005.9
20260510074116 11 180 6.4 11.3 0.00 0.15 0.15 90 1005.9
20260510073636 11 180 4.8 9.7 0.00 0.15 0.15 90 1005.8
20260510073117 11 203 1.6 4.8 0.00 0.15 0.15 90 1005.8
20260510072616 11 225 4.8 6.4 0.00 0.15 0.15 91 1005.8
20260510072136 11 203 8.0 12.9 0.00 0.15 0.15 91 1005.8
20260510071637 11 203 3.2 8.0 0.00 0.15 0.15 91 1005.8
20260510071115 11 180 6.4 11.3 0.00 0.15 0.15 91 1005.8
20260510070616 11 135 4.8 11.3 0.00 0.15 0.15 91 1005.8
20260510070115 11 158 3.2 9.7 0.00 0.15 0.15 91 1005.8
20260510065637 11 135 3.2 8.0 0.00 0.15 0.15 91 1005.7
20260510065136 11 203 4.8 8.0 0.03 0.15 0.15 91 1005.7
20260510064616 11 158 3.2 6.4 0.03 0.15 0.15 91 1005.7
20260510064115 11 180 4.8 9.7 0.05 0.15 0.15 91 1005.7
20260510063636 11 203 1.6 4.8 0.05 0.15 0.15 91 1005.7
20260510063116 11 135 3.2 9.7 0.08 0.15 0.15 91 1005.7
20260510062616 11 135 6.4 9.7 0.08 0.15 0.15 91 1005.6
20260510062118 11 203 4.8 12.9 0.10 0.15 0.15 91 1005.5
20260510061617 11 158 6.4 12.9 0.10 0.15 0.15 90 1005.6
20260510061118 11 158 4.8 9.7 0.13 0.15 0.15 90 1005.4
20260510060618 11 158 1.6 3.2 0.15 0.15 0.15 90 1005.3
20260510060138 11 180 4.8 9.7 0.15 0.15 0.15 90 1005.4
20260510055618 11 158 6.4 11.3 0.15 0.15 0.15 89 1005.3
20260510055118 11 158 4.8 12.9 0.15 0.15 0.15 89 1005.4
20260510054617 11 180 3.2 8.0 0.15 0.15 0.15 89 1005.8
20260510054118 11 180 4.8 12.9 0.13 0.13 0.13 89 1005.8
20260510053617 11 158 4.8 8.0 0.13 0.13 0.13 88 1005.9
20260510053138 11 203 6.4 14.5 0.08 0.08 0.08 88 1006.1
20260510052617 11 180 4.8 11.3 0.08 0.08 0.08 88 1005.9
20260510052118 11 158 8.0 17.7 0.05 0.05 0.05 87 1006.1
20260510051617 11 180 11.3 16.1 0.05 0.05 0.05 87 1006.0
20260510051118 11 180 3.2 8.0 0.05 0.05 0.05 86 1005.9
20260510050617 11 158 4.8 9.7 0.03 0.03 0.03 86 1006.0
20260510050118 11 203 4.8 8.0 0.03 0.03 0.03 85 1006.0
20260510045617 11 203 11.3 22.5 0.00 0.00 0.00 85 1005.9
20260510045118 11 158 8.0 9.7 0.00 0.00 0.00 84 1005.8
20260510044618 11 135 8.0 12.9 0.00 0.00 0.00 84 1005.7
20260510044117 11 180 11.3 17.7 0.00 0.00 0.00 84 1005.7
20260510043617 11 135 4.8 11.3 0.00 0.00 0.00 84 1005.6
20260510043117 11 180 6.4 17.7 0.00 0.00 0.00 83 1005.6
20260510042617 11 158 8.0 16.1 0.00 0.00 0.00 83 1005.6
20260510042117 11 180 4.8 8.0 0.00 0.00 0.00 83 1005.5
20260510041617 11 158 8.0 19.3 0.00 0.00 0.00 83 1005.5
20260510041137 11 158 8.0 17.7 0.00 0.00 0.00 83 1005.4
20260510040637 11 158 6.4 16.1 0.00 0.00 0.00 83 1005.4
20260510040118 11 180 6.4 16.1 0.00 0.00 0.00 83 1005.3
20260510035638 11 135 6.4 16.1 0.00 0.00 0.00 83 1005.3
20260510035117 11 158 8.0 12.9 0.00 0.00 0.00 84 1005.4
20260510034639 11 158 8.0 16.1 0.00 0.00 0.00 83 1005.4
20260510034118 11 135 6.4 12.9 0.00 0.00 0.00 84 1005.4
20260510033618 11 135 6.4 11.3 0.00 0.00 0.00 84 1005.4
20260510033118 11 135 9.7 16.1 0.00 0.00 0.00 84 1005.4
20260510032617 11 135 11.3 20.9 0.00 0.00 0.00 84 1005.5
20260510032118 11 135 4.8 9.7 0.00 0.00 0.00 84 1005.7
20260510031617 11 135 4.8 11.3 0.00 0.00 0.00 84 1005.4
20260510031117 11 158 8.0 14.5 0.00 0.00 0.00 84 1005.4
20260510030617 11 135 4.8 6.4 0.00 0.00 0.00 84 1005.5
20260510030117 11 135 8.0 16.1 0.00 0.00 0.00 84 1005.7
20260510025638 11 158 6.4 14.5 0.00 0.00 0.00 83 1005.9
20260510025118 11 135 6.4 9.7 0.00 0.00 0.00 83 1006.0
20260510024617 11 113 6.4 12.9 0.00 0.00 0.00 83 1006.1
20260510024117 11 135 9.7 14.5 0.00 0.00 0.00 83 1006.1
20260510023617 11 158 3.2 9.7 0.00 0.00 0.00 82 1006.1
20260510023117 11 158 6.4 12.9 0.00 0.00 0.00 82 1006.0
20260510022617 11 135 9.7 25.7 0.00 0.00 0.00 82 1006.2
20260510022118 11 135 9.7 17.7 0.00 0.00 0.00 82 1006.3
20260510021617 11 158 8.0 14.5 0.00 0.00 0.00 81 1006.4
20260510021117 11 158 4.8 8.0 0.00 0.00 0.00 81 1006.4
20260510020617 11 203 4.8 8.0 0.00 0.00 0.00 81 1006.4
20260510020117 11 158 6.4 12.9 0.00 0.00 0.00 81 1006.4
20260510015617 11 135 9.7 19.3 0.00 0.00 0.00 80 1006.5
20260510015117 11 158 12.9 25.7 0.00 0.00 0.00 80 1006.5
20260510014617 11 158 9.7 17.7 0.00 0.00 0.00 80 1006.7
20260510014117 11 135 8.0 16.1 0.00 0.00 0.00 80 1006.8
20260510013617 11 180 8.0 16.1 0.00 0.00 0.00 79 1006.8
20260510013117 11 135 8.0 14.5 0.00 0.00 0.00 79 1006.6
20260510012617 11 135 8.0 14.5 0.00 0.00 0.00 79 1006.5
20260510012118 11 135 9.7 19.3 0.00 0.00 0.00 78 1006.6
20260510011617 11 135 8.0 16.1 0.00 0.00 0.00 78 1006.6
20260510011118 11 158 6.4 11.3 0.00 0.00 0.00 78 1006.6
20260510010637 11 135 9.7 14.5 0.00 0.00 0.00 78 1006.6
20260510010117 11 135 9.7 22.5 0.00 0.00 0.00 77 1006.4
20260510005617 12 158 9.7 16.1 0.00 0.00 0.00 77 1006.3
20260510005117 12 158 9.7 20.9 0.00 0.00 0.00 76 1006.4
20260510004617 12 113 9.7 17.7 0.00 0.00 0.00 76 1006.4
20260510004117 12 158 11.3 22.5 0.00 0.00 0.00 76 1006.4
20260510003617 12 113 9.7 19.3 0.00 0.00 0.00 75 1006.7
20260510003117 12 90 8.0 12.9 0.00 0.00 0.00 75 1006.5
20260510002617 12 135 9.7 19.3 0.00 0.00 0.00 75 1006.7
20260510002117 12 158 12.9 24.1 0.00 0.00 0.00 74 1006.5
20260510001617 12 135 11.3 20.9 0.00 0.00 0.00 74 1006.5
20260510001116 12 135 12.9 24.1 0.00 0.00 0.00 74 1006.5
20260510000617 12 135 11.3 17.7 0.00 0.00 0.00 73 1006.2
20260510000117 12 135 11.3 24.1 0.00 0.00 0.00 73 1006.1
20260509235117 12 135 12.9 22.5 0.00 0.00 0.00 72 1006.3
20260509234637 12 135 8.0 19.3 0.00 0.00 0.00 72 1006.3
20260509234117 12 135 8.0 20.9 0.00 0.00 0.00 72 1006.4
20260509233617 12 158 12.9 22.5 0.00 0.00 0.00 71 1006.4
20260509233117 12 135 11.3 19.3 0.00 0.00 0.00 71 1006.2
20260509232637 13 113 14.5 19.3 0.00 0.00 0.00 70 1006.3
20260509232117 13 113 12.9 22.5 0.00 0.00 0.00 69 1006.4
20260509231637 13 113 14.5 27.4 0.00 0.00 0.00 68 1006.5
20260509231116 13 135 12.9 22.5 0.00 0.00 0.00 67 1006.4
20260509230617 13 135 6.4 14.5 0.00 0.00 0.00 66 1006.5
20260509230117 13 158 11.3 22.5 0.00 0.00 0.00 66 1006.5
20260509225617 14 158 9.7 14.5 0.00 0.00 0.00 65 1006.6
20260509225116 14 180 8.0 16.1 0.00 0.00 0.00 65 1006.8
20260509224657 14 135 9.7 14.5 0.00 0.00 0.00 65 1006.9
20260509224117 14 135 11.3 19.3 0.00 0.00 0.00 65 1006.8
20260509223637 14 135 11.3 19.3 0.00 0.00 0.00 64 1006.8
20260509223117 14 135 16.1 25.7 0.00 0.00 0.00 63 1006.8
20260509222617 14 158 12.9 24.1 0.00 0.00 0.00 63 1006.9
20260509222117 14 135 6.4 11.3 0.00 0.00 0.00 63 1007.0
20260509221617 14 113 11.3 17.7 0.00 0.00 0.00 63 1006.9
20260509221117 15 158 11.3 22.5 0.00 0.00 0.00 62 1006.9
20260509220616 15 158 11.3 20.9 0.00 0.00 0.00 60 1006.8
20260509220116 15 113 14.5 22.5 0.00 0.00 0.00 60 1006.7
20260509215617 15 135 19.3 32.2 0.00 0.00 0.00 58 1006.5
20260509215117 15 158 12.9 29.0 0.00 0.00 0.00 58 1006.5
20260509214616 15 135 16.1 22.5 0.00 0.00 0.00 57 1006.6
20260509214117 15 158 11.3 27.4 0.00 0.00 0.00 56 1006.6
20260509213617 15 135 14.5 22.5 0.00 0.00 0.00 55 1006.7
20260509213136 16 135 17.7 27.4 0.00 0.00 0.00 54 1006.8
20260509212617 16 135 16.1 25.7 0.00 0.00 0.00 53 1006.8
20260509212117 16 158 12.9 22.5 0.00 0.00 0.00 52 1006.9
20260509211616 16 113 17.7 30.6 0.00 0.00 0.00 50 1007.2
20260509211117 16 158 11.3 17.7 0.00 0.00 0.00 49 1007.0
20260509210617 17 135 14.5 24.1 0.00 0.00 0.00 47 1006.9
20260509210116 17 135 9.7 17.7 0.00 0.00 0.00 45 1006.8
20260509205616 17 158 6.4 14.5 0.00 0.00 0.00 46 1006.8
20260509205116 17 113 9.7 17.7 0.00 0.00 0.00 44 1006.9
20260509204617 17 203 11.3 32.2 0.00 0.00 0.00 45 1006.8
20260509204117 17 158 11.3 19.3 0.00 0.00 0.00 43 1006.8
20260509203616 17 113 17.7 29.0 0.00 0.00 0.00 40 1006.9
20260509203117 17 180 11.3 20.9 0.00 0.00 0.00 39 1006.9
20260509202616 17 203 8.0 12.9 0.00 0.00 0.00 39 1007.0
20260509202116 17 135 14.5 20.9 0.00 0.00 0.00 37 1007.1
20260509201617 17 135 14.5 29.0 0.00 0.00 0.00 36 1007.1
20260509201116 17 158 14.5 24.1 0.00 0.00 0.00 36 1007.2
20260509200616 17 180 8.0 14.5 0.00 0.00 0.00 35 1007.2
20260509200117 17 158 12.9 24.1 0.00 0.00 0.00 35 1007.3
20260509195616 18 180 9.7 19.3 0.00 0.00 0.00 34 1007.3
20260509195136 18 135 11.3 16.1 0.00 0.00 0.00 33 1007.2
20260509194616 18 225 4.8 6.4 0.00 0.00 0.00 35 1007.3
20260509194116 18 158 11.3 22.5 0.00 0.00 0.00 35 1007.4
20260509193616 18 203 16.1 33.8 0.00 0.00 0.00 34 1007.4
20260509193117 18 113 9.7 19.3 0.00 0.00 0.00 34 1007.4
20260509192616 18 135 9.7 16.1 0.00 0.00 0.00 34 1007.4
20260509192117 18 158 9.7 16.1 0.00 0.00 0.00 32 1007.6
20260509191616 18 180 9.7 17.7 0.00 0.00 0.00 32 1007.6
20260509191116 18 135 11.3 17.7 0.00 0.00 0.00 31 1007.6
20260509190616 18 135 9.7 22.5 0.00 0.00 0.00 32 1007.8
20260509190117 18 135 8.0 20.9 0.00 0.00 0.00 31 1007.8
20260509185616 18 180 6.4 16.1 0.00 0.00 0.00 31 1007.8
20260509185116 18 113 14.5 24.1 0.00 0.00 0.00 31 1007.8
20260509184616 18 135 12.9 19.3 0.00 0.00 0.00 31 1007.8
20260509184117 18 135 14.5 20.9 0.00 0.00 0.00 30 1008.0
20260509183616 18 180 9.7 16.1 0.00 0.00 0.00 28 1008.0
20260509183116 18 158 12.9 22.5 0.00 0.00 0.00 26 1008.0
20260509182616 18 158 9.7 14.5 0.00 0.00 0.00 26 1007.9
20260509182116 18 135 9.7 17.7 0.00 0.00 0.00 27 1008.1
20260509181636 18 203 9.7 16.1 0.00 0.00 0.00 27 1008.1
20260509181116 18 158 6.4 14.5 0.00 0.00 0.00 27 1008.3
20260509180636 18 158 9.7 16.1 0.00 0.00 0.00 26 1008.4
20260509180116 17 135 8.0 16.1 0.00 0.00 0.00 27 1008.2
20260509175616 18 113 12.9 24.1 0.00 0.00 0.00 26 1008.3
20260509175136 18 135 11.3 20.9 0.00 0.00 0.00 27 1008.5
20260509174616 18 158 9.7 29.0 0.00 0.00 0.00 26 1008.6
20260509174116 18 113 12.9 20.9 0.00 0.00 0.00 26 1008.8
20260509173616 18 158 4.8 8.0 0.00 0.00 0.00 27 1008.9
20260509173136 18 135 6.4 11.3 0.00 0.00 0.00 28 1008.9
20260509172615 18 135 12.9 16.1 0.00 0.00 0.00 28 1009.0
20260509172116 17 203 8.0 19.3 0.00 0.00 0.00 28 1008.9
20260509171616 17 158 8.0 16.1 0.00 0.00 0.00 28 1009.0
20260509171116 17 135 14.5 25.7 0.00 0.00 0.00 28 1009.1
20260509170616 17 158 9.7 20.9 0.00 0.00 0.00 29 1009.1
20260509170116 17 135 11.3 22.5 0.00 0.00 0.00 29 1009.3
20260509165615 17 180 11.3 22.5 0.00 0.00 0.00 28 1009.4
20260509165136 17 158 9.7 17.7 0.00 0.00 0.00 28 1009.5
20260509164616 17 203 9.7 16.1 0.00 0.00 0.00 28 1009.6
20260509164116 17 135 8.0 11.3 0.00 0.00 0.00 29 1009.7
20260509163615 17 113 9.7 16.1 0.00 0.00 0.00 29 1009.7
20260509163118 17 135 11.3 25.7 0.00 0.00 0.00 29 1009.7
20260509162618 17 135 9.7 17.7 0.00 0.00 0.00 29 1009.9
20260509162118 17 113 11.3 16.1 0.00 0.00 0.00 30 1009.9
20260509161618 17 158 6.4 9.7 0.00 0.00 0.00 29 1010.0
20260509161118 17 158 6.4 11.3 0.00 0.00 0.00 30 1010.1
20260509160618 17 248 3.2 6.4 0.00 0.00 0.00 30 1010.2
20260509160118 17 113 4.8 11.3 0.00 0.00 0.00 32 1010.2
20260509155618 16 180 8.0 17.7 0.00 0.00 0.00 30 1010.3
20260509155138 16 203 9.7 19.3 0.00 0.00 0.00 31 1010.4
20260509154617 16 135 8.0 11.3 0.00 0.00 0.00 31 1010.5
20260509154118 16 180 3.2 8.0 0.00 0.00 0.00 32 1010.6
20260509153637 16 180 14.5 24.1 0.00 0.00 0.00 33 1010.6
20260509153117 16 135 8.0 12.9 0.00 0.00 0.00 33 1010.7
20260509152637 16 113 9.7 16.1 0.00 0.00 0.00 35 1010.8
20260509152157 16 158 4.8 9.7 0.00 0.00 0.00 34 1010.8
20260509151617 16 135 14.5 20.9 0.00 0.00 0.00 33 1010.9
20260509151117 16 158 6.4 11.3 0.00 0.00 0.00 33 1010.8
20260509150617 15 135 6.4 11.3 0.00 0.00 0.00 36 1011.0
20260509150117 15 135 9.7 12.9 0.00 0.00 0.00 37 1010.9
20260509145618 15 158 9.7 16.1 0.00 0.00 0.00 36 1010.9
20260509145117 15 113 6.4 12.9 0.00 0.00 0.00 37 1011.0
20260509144617 15 135 8.0 16.1 0.00 0.00 0.00 38 1010.9
20260509144117 15 135 1.6 3.2 0.00 0.00 0.00 39 1010.9
20260509143617 15 135 8.0 11.3 0.00 0.00 0.00 38 1010.9
20260509143117 15 135 6.4 12.9 0.00 0.00 0.00 40 1011.0
20260509142617 14 135 6.4 11.3 0.00 0.00 0.00 41 1010.9
20260509142117 14 135 8.0 14.5 0.00 0.00 0.00 41 1011.0
20260509141638 14 113 9.7 12.9 0.00 0.00 0.00 42 1011.1
20260509141157 14 135 9.7 16.1 0.00 0.00 0.00 42 1011.1
20260509140617 13 158 3.2 8.0 0.00 0.00 0.00 43 1011.1
20260509140118 13 135 3.2 4.8 0.00 0.00 0.00 42 1011.2
20260509135637 13 113 8.0 17.7 0.00 0.00 0.00 42 1011.3
20260509135118 13 135 6.4 11.3 0.00 0.00 0.00 41 1011.4
20260509134617 13 158 4.8 8.0 0.00 0.00 0.00 42 1011.3
20260509134117 13 135 11.3 16.1 0.00 0.00 0.00 41 1011.4
20260509133638 13 135 3.2 6.4 0.00 0.00 0.00 43 1011.3
20260509133137 13 113 6.4 11.3 0.00 0.00 0.00 44 1011.5
20260509132617 13 180 3.2 4.8 0.00 0.00 0.00 45 1011.5
20260509132117 12 158 6.4 9.7 0.00 0.00 0.00 45 1011.4
20260509131617 12 158 3.2 8.0 0.00 0.00 0.00 46 1011.5
20260509131117 12 158 8.0 16.1 0.00 0.00 0.00 46 1011.5
20260509130618 12 135 6.4 12.9 0.00 0.00 0.00 46 1011.5
20260509130117 12 135 8.0 14.5 0.00 0.00 0.00 46 1011.5
20260509125617 12 135 4.8 11.3 0.00 0.00 0.00 45 1011.6
20260509125117 12 135 8.0 11.3 0.00 0.00 0.00 45 1011.6
20260509124617 12 90 4.8 8.0 0.00 0.00 0.00 45 1011.6
20260509124137 11 135 1.6 3.2 0.00 0.00 0.00 47 1011.7
20260509123637 11 113 3.2 6.4 0.00 0.00 0.00 48 1011.7
20260509123117 11 135 4.8 6.4 0.00 0.00 0.00 48 1011.8
20260509122637 10 158 3.2 6.4 0.00 0.00 0.00 49 1011.8
20260509122117 10 158 3.2 6.4 0.00 0.00 0.00 52 1011.9
20260509121637 10 0.0 3.2 0.00 0.00 0.00 52 1011.7
20260509121117 9 180 3.2 8.0 0.00 0.00 0.00 53 1011.7